Weather in Whangamata

New Zealand     37°12′25″S   175°52′16″E
temp.,
°C
wind,
m/s
gust,
m/s
humid.,
%
clouds,
%
prec.,
mm/h
press.,
hPa
HPBL,
m
1 december, wed
wed101:00+13w119945 0.1 101930
04:00+14wsw1299100 0.1 101977
07:00+14wsw1298100 0.1 102067
10:00+18w2475100 0.0 1020554
13:00+22w1257100 0.1 10201130
16:00+19e1293100 1.1 1019173
19:00+16e1197100 1.6 102133
22:00+15ese0197100 0.0 102220
2 december, thu
thu201:00+14se1299100 0.0 102272
04:00+15e289698 0.1 1022435
07:00+15e1591100 0.1 1024294
10:00+19e2263100 0.0 1024995
13:00+22e225199 0.0 10231470
16:00+22ne2256100 0.0 10221235
19:00+20nne1166100 0.0 1022370
22:00+15ne1395100 0.0 102494
3 december, fri
fri301:00+15ene2698100 0.1 1025270
04:00+15e279786 0.1 1023400
07:00+16e399593 0.3 1024713
10:00+16e3109299 0.3 1025800
13:00+18ene4995100 1.5 1024787
16:00+19ene4782100 1.1 1023912
19:00+18ene3780100 1.1 1023836
22:00+16ene3887100 0.1 1024739
4 december, sat
sat401:00+16ene2893100 0.2 1024506
04:00+15ene2897100 0.3 1023459
07:00+16ene3894100 0.5 1023598
10:00+19ene4775100 0.3 10241015
13:00+20ene4666100 0.4 10231242
16:00+19ne3571100 0.2 1022915
19:00+18ne3786100 0.8 1022710
22:00+16ne2796100 0.2 1023393
5 december, sun
sun501:00+16ne2796100 0.4 1023399
04:00+15ne279797 0.1 1022369
07:00+16ne269759 0.2 1023358
10:00+21ne36675 0.3 10241123
13:00+23ne45516 0.4 10231745
16:00+23ne455614 0.1 10221517
19:00+20ne35715 0.1 1022838
22:00+15ene139938 0.0 1024103